Hourly Data Report for October 22, 2015

All times are specified in Local Standard Time (LST). Add 1 hour to adjust for Daylight Saving Time where and when it is observed.

POND INLET A
NUNAVUT

72°41'22.000" N
77°58'08.000" W
61.60 m
2403206
71095
YIO

Download Data

Hourly Data (October 2015)
Hourly Data Report for October 22, 2015
Temp Definition
°C
Dew Point Temp Definition
°C
Rel Hum Definition
%
Wind Dir Definition
10's deg

Wind Spd Definition
km/h
Visibility Definition
km
Stn Press Definition
kPa
Hmdx Definition


Wind Chill Definition


Weather Definition


TIME
00:00 Legend Double Dagger -9.9 -11.1 91 21 35 1.2 99.76   -20 Snow
01:00 Legend Double Dagger -9.0 -10.4 90 26 41 1.6 99.71   -20 Snow
02:00 Legend Double Dagger -9.1 -10.6 89 26 39 2.8 99.74   -19 Snow
03:00 Legend Double Dagger -9.3 -11.5 84 27 32 4.0 99.77   -19 Snow
04:00 Legend Double Dagger -9.4 -11.1 87 27 32 3.2 99.78   -19 Snow
05:00 Legend Double Dagger -9.8 -11.6 87 27 34 1.6 99.78   -20 Snow
06:00 Legend Double Dagger -9.8 -11.4 88 27 28 1.6 99.79   -19 Snow
07:00 Legend Double Dagger -9.5 -10.9 90 28 24 2.0 99.79   -18 Snow
08:00 Legend Double Dagger -9.4 -11.2 87 27 30 3.2 99.79   -19 Snow
09:00 Legend Double Dagger -9.3 -11.0 88 27 26 2.8 99.78   -18 Snow
10:00 Legend Double Dagger -9.7 -11.2 89 25 24 2.0 99.80   -18 Snow
11:00 Legend Double Dagger -9.4 -11.5 85 25 28 8.1 99.80   -18 Snow
12:00 Legend Double Dagger -9.6 -11.4 87 23 35 2.0 99.79   -20 Snow
13:00 Legend Double Dagger -9.7 -11.1 89 24 32 1.0 99.80   -19 Snow
14:00 Legend Double Dagger -9.4 -11.6 84 24 39 4.8 99.81   -20 Snow
15:00 Legend Double Dagger -9.6 -11.9 83 25 43 2.8 99.80   -21 Snow
16:00 Legend Double Dagger -9.8 -11.6 87 22 32 2.8 99.83   -20 Snow
17:00 Legend Double Dagger -10.0 -11.2 91 24 39 1.2 99.78   -21 Snow
18:00 Legend Double Dagger -10.9 -12.1 91 21 39 0.8 99.78   -22 Moderate Snow,Blowing Snow
19:00 Legend Double Dagger -11.0 -12.2 91 21 43 0.8 99.75   -22 Moderate Snow,Blowing Snow
20:00 Legend Double Dagger -11.2 -12.5 90 22 43 1.0 99.76   -23 Snow,Blowing Snow
21:00 Legend Double Dagger -11.3 -12.7 90 21 37 0.8 99.76   -22 Moderate Snow
22:00 Legend Double Dagger -11.3 -12.5 91 21 37 0.8 99.76   -22 Moderate Snow
23:00 Legend Double Dagger -11.4 -12.7 90 21 35 1.0 99.77   -22 Snow

Notes on Data Quality.

Legend

  • E = Estimated
  • M = Missing
  • NA = Not Available
  • ‡ = Partner data that is not subject to review by the National Climate Archives
Date modified: